User: anonymous
Location: Unspecified
(0.0000°N, 0.0000°E)
Time: 00:54:09
(UTC+02:00)
Language:

NOSS 2-2 (E) - Orbit

View from above orbital plane
View from above orbital plane
View from above satellite
View from above satellite

Ground track
Ground track

The orbit data is extracted from the following two-line orbital elements,

1 21809U 91076E   14201.40778403 0.00000100  00000-0  49571-4 0    08
2 21809  63.3680 318.7995 0656000  11.8785 348.1215 13.40918118    07
Epoch (UTC): 20 July 2014 09:47:12
Eccentricity: 0.0656000
inclination: 63.3680°
perigee height: 615 km
apogee height: 1597 km
right ascension of ascending node: 318.7995°
argument of perigee: 11.8785°
revolutions per day: 13.40918118
mean anomaly at epoch: 348.1215°
orbit number at epoch: 0

The dashed part of the orbit path shows where the satellite is in the earth's shadow,  

DLR